[[{"header":{"parameterUnit":"m.s-1","parameterCategory":2,"la1":30.2991,"la2":30.254,"lo1":-89.0895,"lo2":-89.0444,"dy":0.0017,"dx":0.0017,"nx":28,"ny":28,"refTime":"2024-02-11T03:00:00:Z","depth":"0","parameterNumber":2,"parameterNumberName":"U-component_of_CURRENTS"},"data":[0,0,0,0,0,0,0,0,0,0,0,0,0,0,0,0,0,0,0,0,0,0,0,0,0,0,0,0,0,0,0,0,0,0,0,0,0,0,0,0,0,0,0,0,0,0,0,0,0,0,0,0,0,0,0,0,0,0,-0.2259,-0.2262,0,-0.2431,-0.2433,-0.2434,-0.2424,-0.2422,-0.2421,-0.2419,-0.2371,-0.2372,-0.2372,0,0,0,0,0,0,0,0,0,0,0,0,0,-0.1982,-0.1986,-0.2259,-0.2262,-0.2265,-0.2431,-0.2433,-0.2434,-0.2424,-0.2422,-0.242,-0.2418,-0.2371,-0.2372,-0.2372,0,0,0,0,0,0,0,0,0,0,0,0,0,-0.2114,-0.1987,-0.2259,-0.2287,-0.2292,-0.2431,-0.2433,-0.2434,-0.2425,-0.2422,-0.242,-0.2417,-0.2371,-0.2372,-0.2372,-0.2423,0,0,-0.2373,-0.2373,0,0,0,0,0,0,0,0,-0.2106,-0.2123,-0.228,-0.2286,-0.2292,-0.2412,-0.2318,-0.2423,-0.2425,-0.2364,-0.2419,-0.2416,-0.2373,-0.2373,-0.24,-0.2421,-0.2418,-0.2373,-0.2373,-0.2373,-0.2373,0,0,0,0,0,0,0,-0.2097,-0.2116,-0.2318,-0.2284,-0.2291,-0.2313,-0.2327,-0.2338,-0.2368,-0.2369,-0.2371,-0.2407,-0.2372,-0.24,-0.2398,-0.2418,-0.2373,-0.2373,-0.2374,-0.2374,-0.2407,-0.2407,0,0,0,0,0,0,-0.2096,-0.2107,-0.2312,-0.2324,-0.2202,-0.232,-0.2336,-0.2368,-0.2373,-0.2376,-0.2409,-0.2406,-0.2401,-0.2398,-0.2396,-0.2374,-0.2373,-0.2374,-0.2374,-0.2406,-0.2407,-0.2408,0,0,0,0,0,0,-0.2089,-0.2112,-0.2306,-0.2227,-0.2254,-0.2328,-0.2364,-0.2373,-0.2394,-0.2407,-0.2403,-0.2421,-0.2398,-0.2396,-0.2407,-0.2374,-0.2374,-0.2374,-0.2405,-0.2406,-0.2407,-0.2381,0,0,0,0,0,0,-0.208,-0.2108,-0.2119,-0.2227,-0.2259,-0.2363,-0.2368,-0.2378,-0.2425,-0.2422,-0.2417,-0.2411,-0.2396,-0.2407,-0.2407,-0.2375,-0.2374,-0.2405,-0.2406,-0.2407,-0.2382,-0.2381,-0.2381,0,0,0,0,0,-0.2069,-0.2105,-0.2118,-0.2143,-0.2275,-0.2365,-0.2381,-0.242,-0.2428,-0.243,-0.2442,-0.241,-0.2413,-0.2409,-0.2409,-0.2376,-0.2404,-0.2405,-0.2407,-0.2382,-0.2381,-0.2381,0,0,0,0,0,0,-0.1994,-0.2112,-0.2127,-0.2196,-0.2261,-0.2366,-0.2399,-0.2426,-0.2447,-0.2444,-0.2437,-0.2433,-0.2419,-0.2423,-0.2418,-0.2393,-0.2397,-0.2398,-0.2377,-0.2377,-0.2377,-0.234,-0.2375,0,0,0,0,0,-0.1985,-0.2033,-0.214,-0.2188,-0.2232,-0.2314,-0.2356,-0.2384,-0.2433,-0.2441,-0.2439,-0.244,-0.2433,-0.2426,-0.2422,-0.2428,-0.2391,-0.2404,-0.2404,-0.2404,-0.2377,-0.2313,-0.2303,-0.2413,-0.2413,-0.2413,0,0,-0.1969,-0.2043,-0.2068,-0.2173,-0.2239,-0.2301,-0.233,-0.2402,-0.2421,-0.2432,-0.2444,-0.244,-0.2438,-0.2428,-0.2421,-0.2422,-0.2359,-0.2406,-0.2405,-0.2378,-0.2313,-0.2302,-0.2292,-0.2414,-0.2413,-0.2413,0,0,-0.1993,-0.2033,-0.2093,-0.2146,-0.2249,-0.2294,-0.2313,-0.2407,-0.2409,-0.2448,-0.2438,-0.2414,-0.2444,-0.2403,-0.2397,-0.2401,-0.2361,-0.2411,-0.2376,-0.2315,-0.2304,-0.2294,-0.2246,-0.2232,-0.241,-0.241,-0.241,0,-0.1969,-0.2056,-0.2118,-0.2192,-0.223,-0.2289,-0.2343,-0.237,-0.2438,-0.2424,-0.244,-0.243,-0.2417,-0.2372,-0.237,-0.2389,-0.2368,-0.2372,-0.231,-0.2299,-0.2289,-0.2242,-0.2226,-0.2409,-0.2409,-0.241,-0.241,0,-0.2053,-0.2102,-0.2146,-0.224,-0.2276,-0.2333,-0.2383,-0.2391,-0.2408,-0.242,-0.2386,-0.238,-0.2359,-0.2353,-0.2367,-0.2288,-0.2301,-0.2313,-0.2298,-0.2275,-0.2229,-0.2213,-0.2408,-0.2408,-0.2408,-0.2409,0,0,-0.2046,-0.2177,-0.2186,-0.2215,-0.2298,-0.2338,-0.2352,-0.2371,-0.2361,-0.2375,-0.2343,-0.2316,-0.2297,-0.2287,-0.2278,-0.2224,-0.2138,-0.2245,-0.2242,-0.2176,-0.2016,-0.1977,-0.1956,-0.2148,-0.2145,-0.2143,-0.2016,0,-0.2087,-0.2204,-0.2249,-0.2304,-0.2358,-0.2371,-0.2373,-0.2375,-0.237,-0.2346,-0.2298,-0.227,-0.2278,-0.2259,-0.2206,-0.2159,-0.2094,-0.2171,-0.2066,-0.2062,-0.2011,-0.1935,-0.1877,-0.1755,-0.2,-0.1998,-0.1996,0,-0.2153,-0.2214,-0.229,-0.232,-0.2343,-0.2364,-0.2341,-0.2352,-0.2313,-0.2302,-0.2252,-0.223,-0.2143,-0.2164,-0.2034,-0.2093,-0.2042,-0.2003,-0.1998,-0.1949,-0.1991,-0.1818,-0.1717,-0.1711,-0.1971,-0.1973,-0.1975,0,-0.2127,-0.2223,-0.2268,-0.2289,-0.2348,-0.2342,-0.235,-0.2328,-0.2301,-0.2258,-0.2227,-0.2152,-0.2096,-0.2025,-0.1954,-0.1991,-0.1817,-0.1858,-0.1764,-0.1762,-0.168,-0.1676,-0.1533,-0.1735,-0.1735,-0.1735,-0.1736,0,-0.2154,-0.2179,-0.2257,-0.2286,-0.2279,-0.2327,-0.2296,-0.2292,-0.226,-0.2198,-0.2194,-0.212,-0.2057,-0.1966,-0.1919,-0.1783,-0.1781,-0.1716,-0.1706,-0.1675,-0.1672,-0.1639,-0.1672,-0.1731,-0.1732,-0.1732,-0.1733,0,-0.2123,-0.2192,-0.2225,-0.2278,-0.2279,-0.227,-0.2256,-0.2227,-0.2222,-0.2138,-0.2113,-0.2059,-0.1943,-0.1881,-0.1749,-0.1712,-0.157,-0.1559,-0.1535,-0.1522,-0.1438,-0.1473,-0.1306,-0.127,-0.1422,-0.1419,-0.1418,0,-0.2119,-0.2149,-0.2193,-0.2189,-0.221,-0.2202,-0.218,-0.2188,-0.2145,-0.208,-0.2022,-0.192,-0.1819,-0.1648,-0.1553,-0.1436,-0.1459,-0.1326,-0.1364,-0.1379,-0.1411,-0.1448,-0.1434,-0.1256,-0.1253,-0.1251,-0.1249,0,-0.2072,-0.2092,-0.2118,-0.211,-0.2098,-0.2075,-0.205,-0.2011,-0.1992,-0.1939,-0.1836,-0.1764,-0.1617,-0.1469,-0.135,-0.1281,-0.1304,-0.1272,-0.1275,-0.1235,-0.1273,-0.1255,-0.1421,-0.1228,-0.123,-0.1231,-0.1233,-0.1233,-0.1994,-0.199,-0.2014,-0.1988,-0.1975,-0.1921,-0.1854,-0.1837,-0.1758,-0.1635,-0.1644,-0.1513,-0.142,-0.1243,-0.1177,-0.1066,-0.1119,-0.1039,-0.1069,-0.1098,-0.1078,-0.1201,-0.1014,-0.1015,-0.1016,-0.1016,-0.1017,0,-0.1869,-0.1883,-0.1876,-0.1835,-0.1768,-0.1803,-0.1729,-0.164,-0.1515,-0.1457,-0.1361,-0.124,-0.1122,-0.1061,-0.0952,-0.0891,-0.0887,-0.0873,-0.0913,-0.0901,-0.0977,-0.0986,-0.0799,-0.0799,-0.0799,-0.0799,-0.0799,-0.0799,-0.1804,-0.1759,-0.1763,-0.1617,-0.159,-0.1448,-0.1384,-0.1295,-0.1224,-0.1068,-0.0992,-0.0959,-0.0948,-0.0962,-0.0876,-0.0826,-0.0824,-0.0784,-0.0812,-0.0892,-0.0911,-0.093,-0.0943,-0.075,-0.075,-0.0704,-0.0704,-0.0704]},{"header":{"parameterUnit":"m.s-1","parameterCategory":2,"la1":30.2991,"la2":30.254,"lo1":-89.0895,"lo2":-89.0444,"dy":0.0017,"dx":0.0017,"nx":28,"ny":28,"refTime":"2024-02-11T03:00:00:Z","depth":"0","parameterNumber":3,"parameterNumberName":"V-component_of_CURRENTS"},"data":[0,0,0,0,0,0,0,0,0,0,0,0,0,0,0,0,0,0,0,0,0,0,0,0,0,0,0,0,0,0,0,0,0,0,0,0,0,0,0,0,0,0,0,0,0,0,0,0,0,0,0,0,0,0,0,0,0,0,-0.026,-0.0258,0,-0.0088,-0.0086,-0.0084,-0.0009,-0.001,-0.0011,-0.0011,0.0162,0.0167,0.0173,0,0,0,0,0,0,0,0,0,0,0,0,0,-0.0317,-0.0317,-0.026,-0.0258,-0.0256,-0.0089,-0.0086,-0.0083,-0.0009,-0.001,-0.0011,-0.0012,0.0161,0.0167,0.0173,0,0,0,0,0,0,0,0,0,0,0,0,0,-0.023,-0.0317,-0.026,-0.0203,-0.0197,-0.0089,-0.0086,-0.0082,-0.0009,-0.001,-0.0011,-0.0012,0.0159,0.0166,0.0174,0.0245,0,0,0.0198,0.0202,0,0,0,0,0,0,0,0,-0.0235,-0.0227,-0.0213,-0.0207,-0.0199,-0.0076,-0.0043,0.0025,-0.0009,-0.0075,-0.0011,-0.0013,0.008,0.0095,0.0137,0.0253,0.0261,0.0199,0.0204,0.0207,0.021,0,0,0,0,0,0,0,-0.0241,-0.0233,-0.0187,-0.0211,-0.0203,-0.0116,-0.0106,-0.0028,0.0011,-0.0069,-0.0065,-0.0053,0.0085,0.0129,0.0141,0.0263,0.0199,0.0206,0.0211,0.0214,0.0439,0.044,0,0,0,0,0,0,-0.0282,-0.024,-0.0192,-0.0182,-0.0226,-0.0115,-0.0104,-0.011,0.001,0.0026,-0.0052,-0.0051,0.0116,0.0132,0.0147,0.0236,0.0207,0.0215,0.0219,0.0438,0.0439,0.0441,0,0,0,0,0,0,-0.0284,-0.028,-0.0199,-0.0209,-0.0194,-0.0115,-0.0121,-0.0106,-0.0068,0.0022,0.0038,-0.0031,0.0115,0.0136,0.0225,0.0243,0.0218,0.0226,0.0436,0.0438,0.044,0.0414,0,0,0,0,0,0,-0.0287,-0.0283,-0.0288,-0.0214,-0.0195,-0.0146,-0.012,-0.0102,-0.0061,-0.0057,0.0046,0.0061,0.0116,0.0213,0.0233,0.0253,0.0232,0.0435,0.0437,0.0439,0.0414,0.0415,0.0416,0,0,0,0,0,-0.029,-0.0301,-0.0289,-0.0283,-0.0211,-0.0146,-0.0128,-0.007,-0.006,-0.0039,0.0037,0.0058,0.024,0.0221,0.0244,0.0267,0.0434,0.0437,0.0439,0.0413,0.0415,0.0416,0,0,0,0,0,0,-0.032,-0.0293,-0.0279,-0.0279,-0.0223,-0.0136,-0.0113,-0.0074,0.0006,0.0009,0.0089,0.0111,0.018,0.0236,0.0213,0.0337,0.0335,0.0342,0.0307,0.031,0.0311,0.0297,0.0238,0,0,0,0,0,-0.0334,-0.0341,-0.0287,-0.0282,-0.0265,-0.0189,-0.0153,-0.0114,-0.0041,-0.0008,0.0063,0.0142,0.0214,0.0269,0.0329,0.0422,0.0441,0.0447,0.0448,0.0449,0.0453,0.0513,0.052,0.0449,0.0449,0.0449,0,0,-0.0343,-0.0329,-0.0329,-0.0289,-0.0244,-0.0198,-0.0169,-0.0124,-0.007,-0.0,0.0088,0.0138,0.0233,0.0318,0.0356,0.0371,0.0473,0.0452,0.0452,0.0457,0.0517,0.0523,0.0529,0.0451,0.0451,0.0451,0,0,-0.0356,-0.0356,-0.036,-0.0317,-0.0263,-0.021,-0.0204,-0.0123,-0.0078,0.0016,0.0066,0.0134,0.026,0.0332,0.0386,0.0438,0.0457,0.0449,0.0476,0.0534,0.0539,0.0545,0.0543,0.0548,0.0475,0.0475,0.0475,0,-0.0362,-0.0363,-0.0343,-0.0321,-0.0284,-0.0222,-0.0189,-0.0121,-0.0015,0.0031,0.0033,0.0208,0.027,0.0393,0.0407,0.044,0.0456,0.046,0.0534,0.054,0.0546,0.0543,0.0549,0.0474,0.0474,0.0474,0.0474,0,-0.0369,-0.0357,-0.0353,-0.031,-0.0265,-0.023,-0.0148,-0.0097,-0.0043,0.0035,0.0136,0.0228,0.0334,0.036,0.0408,0.0492,0.0478,0.0504,0.0523,0.0551,0.0546,0.0553,0.0473,0.0473,0.0473,0.0474,0,0,-0.0409,-0.0369,-0.0364,-0.034,-0.026,-0.0222,-0.0146,-0.0049,0.001,0.0105,0.019,0.0309,0.0345,0.0407,0.0466,0.0529,0.0567,0.0539,0.0543,0.0523,0.0653,0.0614,0.0618,0.0609,0.0611,0.0612,0.0618,0,-0.0413,-0.0394,-0.0357,-0.03,-0.0279,-0.0202,-0.0128,-0.0031,0.0054,0.0152,0.0252,0.0345,0.0373,0.0414,0.0485,0.0543,0.0592,0.0561,0.0641,0.0642,0.0595,0.0629,0.0647,0.0653,0.0625,0.0626,0.0627,0,-0.0426,-0.0411,-0.0384,-0.0305,-0.0287,-0.0235,-0.0127,-0.005,0.0098,0.0162,0.0271,0.0349,0.0457,0.0467,0.0588,0.0566,0.0606,0.0645,0.0647,0.063,0.062,0.0631,0.0668,0.0755,0.0638,0.0637,0.0636,0,-0.0477,-0.042,-0.0407,-0.0379,-0.0283,-0.0249,-0.0187,-0.0053,0.0013,0.016,0.0209,0.0361,0.0411,0.0509,0.0579,0.0592,0.0684,0.0716,0.0716,0.0711,0.0753,0.0749,0.0878,0.08,0.08,0.08,0.08,0,-0.0498,-0.0477,-0.0435,-0.042,-0.0382,-0.0298,-0.0227,-0.0143,-0.0019,0.0058,0.0199,0.0265,0.0424,0.0501,0.0578,0.0649,0.0682,0.0718,0.0726,0.0739,0.0734,0.0833,0.0864,0.08,0.08,0.08,0.08,0,-0.0545,-0.0521,-0.0499,-0.043,-0.0409,-0.0385,-0.0282,-0.0222,-0.0113,-0.0021,0.0016,0.0185,0.0281,0.041,0.0548,0.0618,0.0751,0.072,0.0688,0.0693,0.0788,0.0816,0.0919,0.0972,0.0741,0.074,0.074,0,-0.0569,-0.0571,-0.0532,-0.0528,-0.0499,-0.0452,-0.0409,-0.0287,-0.0225,-0.0079,-0.0042,0.0078,0.0178,0.0349,0.0503,0.063,0.0711,0.0705,0.0754,0.0799,0.0837,0.0854,0.0894,0.0783,0.0783,0.0783,0.0783,0,-0.0607,-0.0603,-0.0589,-0.059,-0.0566,-0.0526,-0.0462,-0.0432,-0.0293,-0.0221,-0.0122,-0.0037,0.015,0.0334,0.0495,0.0577,0.0771,0.0704,0.08,0.0919,0.0904,0.0955,0.0725,0.0782,0.0782,0.0782,0.0782,0.0782,-0.0638,-0.0651,-0.0645,-0.0639,-0.0622,-0.0593,-0.0563,-0.0495,-0.0423,-0.0291,-0.0209,-0.0047,0.0223,0.0478,0.0565,0.077,0.0761,0.0851,0.0886,0.0901,0.0955,0.0679,0.0717,0.0716,0.0716,0.0716,0.0716,0,-0.0669,-0.068,-0.0685,-0.0677,-0.0669,-0.064,-0.0583,-0.0538,-0.048,-0.0332,-0.0226,0.0107,0.0352,0.0599,0.0874,0.0973,0.1027,0.1016,0.109,0.1129,0.0939,0.0946,0.0977,0.0977,0.0977,0.0977,0.0977,0.0977,-0.0684,-0.0706,-0.0707,-0.0715,-0.0708,-0.0679,-0.0652,-0.0586,-0.047,-0.025,-0.0028,0.0156,0.0489,0.0916,0.1169,0.1185,0.1301,0.1256,0.1319,0.123,0.1219,0.1208,0.1226,0.1316,0.1316,0.1525,0.1527,0.1528]}],[{"header":{"parameterUnit":"m.s-1","parameterCategory":2,"la1":30.2991,"la2":30.254,"lo1":-89.0895,"lo2":-89.0444,"dy":0.0017,"dx":0.0017,"nx":28,"ny":28,"refTime":"2024-02-11T03:00:00:Z","depth":"2","parameterNumber":2,"parameterNumberName":"U-component_of_CURRENTS"},"data":[0,0,0,0,0,0,0,0,0,0,0,0,0,0,0,0,0,0,0,0,0,0,0,0,0,0,0,0,0,0,0,0,0,0,0,0,0,0,0,0,0,0,0,0,0,0,0,0,0,0,0,0,0,0,0,0,0,0,-0.165,-0.1651,0,-0.1719,-0.172,-0.1721,-0.1728,-0.1727,-0.1726,-0.1726,-0.1762,-0.1763,-0.1765,0,0,0,0,0,0,0,0,0,0,0,0,0,-0.1562,-0.1563,-0.165,-0.1651,-0.1651,-0.1719,-0.172,-0.1721,-0.1728,-0.1727,-0.1726,-0.1725,-0.1761,-0.1763,-0.1765,0,0,0,0,0,0,0,0,0,0,0,0,0,-0.1613,-0.1564,-0.165,-0.1662,-0.1664,-0.1719,-0.172,-0.1721,-0.1728,-0.1727,-0.1726,-0.1725,-0.1761,-0.1763,-0.1766,-0.1806,0,0,-0.1773,-0.1774,0,0,0,0,0,0,0,0,-0.161,-0.1617,-0.166,-0.1662,-0.1664,-0.1713,-0.1702,-0.1747,-0.1729,-0.1705,-0.1726,-0.1724,-0.1742,-0.1746,-0.1764,-0.1807,-0.1809,-0.1774,-0.1775,-0.1776,-0.1777,0,0,0,0,0,0,0,-0.1607,-0.1614,-0.1678,-0.1661,-0.1663,-0.1677,-0.1683,-0.1711,-0.173,-0.1707,-0.1708,-0.1714,-0.1743,-0.1762,-0.1765,-0.1809,-0.1774,-0.1776,-0.1777,-0.1778,-0.1878,-0.1879,0,0,0,0,0,0,-0.1596,-0.1611,-0.1676,-0.168,-0.1632,-0.168,-0.1686,-0.1699,-0.173,-0.1734,-0.1715,-0.1714,-0.1758,-0.1762,-0.1766,-0.18,-0.1776,-0.1779,-0.178,-0.1877,-0.1878,-0.1879,0,0,0,0,0,0,-0.1594,-0.1601,-0.1673,-0.1645,-0.1655,-0.1682,-0.1697,-0.1701,-0.1714,-0.1736,-0.1739,-0.1723,-0.1757,-0.1763,-0.1799,-0.1801,-0.178,-0.1782,-0.1876,-0.1877,-0.1879,-0.1877,0,0,0,0,0,0,-0.1591,-0.16,-0.1607,-0.1645,-0.1657,-0.1692,-0.1698,-0.1703,-0.172,-0.1719,-0.1745,-0.1747,-0.1757,-0.1795,-0.1802,-0.1805,-0.1784,-0.1874,-0.1876,-0.1878,-0.1875,-0.1878,-0.188,0,0,0,0,0,-0.1588,-0.1597,-0.1608,-0.1615,-0.1665,-0.1692,-0.1699,-0.1715,-0.1721,-0.1724,-0.1755,-0.1746,-0.1812,-0.1799,-0.1806,-0.1809,-0.1873,-0.1876,-0.1878,-0.1874,-0.1877,-0.188,0,0,0,0,0,0,-0.1563,-0.16,-0.1612,-0.1633,-0.1655,-0.1692,-0.1703,-0.1717,-0.1747,-0.1753,-0.1769,-0.1775,-0.1797,-0.1816,-0.1801,-0.1846,-0.1838,-0.1842,-0.1832,-0.1836,-0.1838,-0.181,-0.1786,0,0,0,0,0,-0.1562,-0.1578,-0.1613,-0.1629,-0.1642,-0.1675,-0.169,-0.1705,-0.1736,-0.1748,-0.1769,-0.1797,-0.1817,-0.1836,-0.1852,-0.1893,-0.1862,-0.1898,-0.1901,-0.1903,-0.1886,-0.1854,-0.1851,-0.1888,-0.1888,-0.1888,0,0,-0.1556,-0.158,-0.1588,-0.1624,-0.1648,-0.1671,-0.1681,-0.1707,-0.1729,-0.1749,-0.1787,-0.1801,-0.1827,-0.1859,-0.1872,-0.1876,-0.1876,-0.1906,-0.1907,-0.1889,-0.1856,-0.1852,-0.1848,-0.1889,-0.1889,-0.1889,0,0,-0.1554,-0.1576,-0.159,-0.161,-0.1646,-0.1669,-0.1675,-0.1717,-0.1736,-0.1783,-0.1791,-0.1809,-0.1862,-0.187,-0.1884,-0.1916,-0.188,-0.1927,-0.1929,-0.1898,-0.1894,-0.1889,-0.1836,-0.1827,-0.1941,-0.1941,-0.1941,0,-0.1547,-0.1575,-0.1596,-0.1617,-0.1637,-0.1666,-0.169,-0.1716,-0.1765,-0.1781,-0.1792,-0.1841,-0.1863,-0.1881,-0.1896,-0.1917,-0.1887,-0.1913,-0.1897,-0.1893,-0.1888,-0.1834,-0.1824,-0.1941,-0.1941,-0.1941,-0.1941,0,-0.156,-0.1582,-0.1592,-0.163,-0.165,-0.1676,-0.1713,-0.1738,-0.177,-0.1793,-0.1817,-0.1848,-0.1871,-0.1884,-0.1907,-0.1893,-0.1875,-0.189,-0.188,-0.1883,-0.1828,-0.1817,-0.1941,-0.1941,-0.1941,-0.1941,0,0,-0.1548,-0.1594,-0.1598,-0.1611,-0.1664,-0.1675,-0.1718,-0.1755,-0.1766,-0.1807,-0.1821,-0.1858,-0.1859,-0.1874,-0.189,-0.1875,-0.1826,-0.1876,-0.1875,-0.1805,-0.1734,-0.1684,-0.1667,-0.1836,-0.1834,-0.1833,-0.1703,0,-0.1557,-0.1584,-0.1616,-0.1641,-0.1658,-0.1698,-0.1726,-0.1758,-0.1791,-0.1809,-0.1829,-0.1848,-0.1861,-0.1874,-0.1857,-0.1836,-0.18,-0.1858,-0.1756,-0.1752,-0.1693,-0.1655,-0.1567,-0.144,-0.1692,-0.169,-0.1689,0,-0.156,-0.1579,-0.1606,-0.1639,-0.1651,-0.1675,-0.1712,-0.1745,-0.1777,-0.1803,-0.1816,-0.1827,-0.182,-0.1834,-0.1763,-0.18,-0.176,-0.1734,-0.1729,-0.1671,-0.1683,-0.1482,-0.1412,-0.1671,-0.1672,-0.1674,-0.1675,0,-0.152,-0.1568,-0.1584,-0.1598,-0.1643,-0.1668,-0.1704,-0.1742,-0.1758,-0.1798,-0.1798,-0.1795,-0.1789,-0.1744,-0.1704,-0.1731,-0.1605,-0.164,-0.1542,-0.1537,-0.1435,-0.1424,-0.156,-0.1561,-0.1561,-0.1561,-0.1562,0,-0.1509,-0.1519,-0.1567,-0.157,-0.1591,-0.1642,-0.1662,-0.1703,-0.1738,-0.1731,-0.1786,-0.176,-0.1765,-0.1707,-0.1672,-0.1559,-0.1574,-0.151,-0.1494,-0.1433,-0.1424,-0.1613,-0.1621,-0.1556,-0.1557,-0.1558,-0.1559,0,-0.1456,-0.1491,-0.1503,-0.1551,-0.157,-0.1587,-0.1641,-0.1639,-0.1694,-0.1687,-0.1698,-0.1716,-0.1649,-0.1619,-0.154,-0.1503,-0.142,-0.1375,-0.1294,-0.1271,-0.1376,-0.1386,-0.1244,-0.1241,-0.1238,-0.1236,-0.1234,0,-0.1431,-0.1428,-0.1468,-0.1471,-0.15,-0.1533,-0.1543,-0.1615,-0.1613,-0.1637,-0.1614,-0.1583,-0.1531,-0.1404,-0.1339,-0.1239,-0.131,-0.1106,-0.1148,-0.1341,-0.1341,-0.1355,-0.1367,-0.1005,-0.1001,-0.0998,-0.0996,0,-0.1368,-0.1381,-0.1383,-0.1391,-0.1408,-0.142,-0.1452,-0.1448,-0.1504,-0.1495,-0.1465,-0.1437,-0.1342,-0.1215,-0.1117,-0.1055,-0.1126,-0.1044,-0.1239,-0.1115,-0.111,-0.1112,-0.1133,-0.097,-0.0973,-0.0975,-0.0976,-0.0977,-0.1308,-0.1294,-0.1289,-0.1291,-0.1304,-0.1301,-0.1281,-0.13,-0.1287,-0.1259,-0.1287,-0.1205,-0.1184,-0.0985,-0.0904,-0.0845,-0.0926,-0.0895,-0.0906,-0.0919,-0.0932,-0.0924,-0.075,-0.0751,-0.0752,-0.0753,-0.0754,0,-0.1217,-0.1204,-0.1189,-0.1182,-0.1148,-0.12,-0.1192,-0.1149,-0.1098,-0.1089,-0.1048,-0.0907,-0.0819,-0.0797,-0.0667,-0.0635,-0.065,-0.0609,-0.0644,-0.0669,-0.0691,-0.0696,-0.0448,-0.0448,-0.0447,-0.0446,0,0,-0.1165,-0.1112,-0.11,-0.1022,-0.1019,-0.0955,-0.0934,-0.0891,-0.0862,-0.0786,-0.0738,-0.0773,-0.0777,-0.062,-0.0577,-0.0497,-0.0581,-0.0465,-0.0709,-0.0775,-0.0797,-0.085,-0.0883,0,0,0,0,0]},{"header":{"parameterUnit":"m.s-1","parameterCategory":2,"la1":30.2991,"la2":30.254,"lo1":-89.0895,"lo2":-89.0444,"dy":0.0017,"dx":0.0017,"nx":28,"ny":28,"refTime":"2024-02-11T03:00:00:Z","depth":"2","parameterNumber":3,"parameterNumberName":"V-component_of_CURRENTS"},"data":[0,0,0,0,0,0,0,0,0,0,0,0,0,0,0,0,0,0,0,0,0,0,0,0,0,0,0,0,0,0,0,0,0,0,0,0,0,0,0,0,0,0,0,0,0,0,0,0,0,0,0,0,0,0,0,0,0,0,-0.0415,-0.0415,0,-0.0382,-0.0381,-0.038,-0.033,-0.033,-0.0329,-0.0329,-0.0206,-0.0204,-0.0201,0,0,0,0,0,0,0,0,0,0,0,0,0,-0.0384,-0.0385,-0.0415,-0.0414,-0.0414,-0.0382,-0.0381,-0.038,-0.033,-0.033,-0.0329,-0.0328,-0.0207,-0.0204,-0.0201,0,0,0,0,0,0,0,0,0,0,0,0,0,-0.0376,-0.0385,-0.0415,-0.0388,-0.0386,-0.0382,-0.0381,-0.038,-0.0331,-0.033,-0.0329,-0.0328,-0.0208,-0.0204,-0.02,-0.0193,0,0,-0.0188,-0.0186,0,0,0,0,0,0,0,0,-0.0376,-0.0376,-0.0392,-0.039,-0.0387,-0.0362,-0.0325,-0.0314,-0.0331,-0.0348,-0.0329,-0.0328,-0.0253,-0.0245,-0.0237,-0.0187,-0.0182,-0.0187,-0.0185,-0.0183,-0.0182,0,0,0,0,0,0,0,-0.0377,-0.0377,-0.0398,-0.0392,-0.0389,-0.0361,-0.0359,-0.0323,-0.0301,-0.0346,-0.0344,-0.0345,-0.025,-0.0242,-0.0234,-0.018,-0.0188,-0.0184,-0.0181,-0.018,-0.0063,-0.0062,0,0,0,0,0,0,-0.0392,-0.0378,-0.0399,-0.0397,-0.0383,-0.0362,-0.036,-0.0368,-0.0304,-0.0295,-0.0346,-0.0343,-0.0249,-0.0239,-0.0229,-0.0182,-0.0183,-0.0179,-0.0177,-0.0063,-0.0062,-0.0062,0,0,0,0,0,0,-0.0391,-0.0394,-0.0401,-0.0389,-0.0388,-0.0365,-0.0374,-0.0368,-0.036,-0.0305,-0.0294,-0.0344,-0.0248,-0.0235,-0.0191,-0.0178,-0.0178,-0.0174,-0.0064,-0.0063,-0.0062,-0.0108,0,0,0,0,0,0,-0.0391,-0.0394,-0.0401,-0.0391,-0.039,-0.0404,-0.0375,-0.0368,-0.0364,-0.036,-0.03,-0.0287,-0.0246,-0.0198,-0.0187,-0.0172,-0.0171,-0.0065,-0.0064,-0.0062,-0.0107,-0.0109,-0.011,0,0,0,0,0,-0.039,-0.0411,-0.0402,-0.0404,-0.0402,-0.0405,-0.0401,-0.0378,-0.0365,-0.0366,-0.0318,-0.0289,-0.0182,-0.0195,-0.0182,-0.0165,-0.0065,-0.0064,-0.0062,-0.0107,-0.0108,-0.011,0,0,0,0,0,0,-0.04,-0.0407,-0.0397,-0.0419,-0.0413,-0.0397,-0.0402,-0.0386,-0.0352,-0.0345,-0.0287,-0.0272,-0.0234,-0.0192,-0.0207,-0.0126,-0.0116,-0.0112,-0.0154,-0.0155,-0.0156,-0.0161,-0.0167,0,0,0,0,0,-0.0408,-0.0424,-0.042,-0.0436,-0.0439,-0.0421,-0.0418,-0.0405,-0.0378,-0.0363,-0.0319,-0.0264,-0.0219,-0.0182,-0.0146,-0.01,-0.0065,-0.0077,-0.0079,-0.008,-0.0074,-0.0007,-0.0002,-0.0057,-0.0057,-0.0057,0,0,-0.0416,-0.0422,-0.0431,-0.0439,-0.0434,-0.0441,-0.0416,-0.0422,-0.0411,-0.0354,-0.0321,-0.028,-0.0213,-0.0166,-0.0142,-0.0125,-0.0051,-0.0078,-0.008,-0.0073,-0.0005,0.0,0.0005,-0.0056,-0.0056,-0.0056,0,0,-0.0449,-0.0449,-0.0475,-0.0474,-0.0476,-0.0463,-0.0468,-0.0453,-0.0428,-0.0397,-0.0351,-0.0293,-0.0232,-0.0168,-0.0129,-0.0111,-0.0075,-0.0105,-0.0095,-0.0031,-0.0026,-0.0021,0.0006,0.0014,-0.0086,-0.0086,-0.0086,0,-0.0455,-0.0486,-0.0481,-0.0502,-0.05,-0.0477,-0.0492,-0.0468,-0.0433,-0.0403,-0.0392,-0.0281,-0.0225,-0.0146,-0.0133,-0.0113,-0.009,-0.0098,-0.0033,-0.0028,-0.0022,0.0006,0.0015,-0.0088,-0.0088,-0.0088,-0.0088,0,-0.0508,-0.0524,-0.0541,-0.0554,-0.055,-0.0562,-0.0533,-0.0511,-0.0477,-0.0441,-0.0372,-0.0295,-0.0216,-0.0191,-0.0152,-0.0079,-0.0083,-0.0061,-0.0035,-0.0019,0.0008,0.0019,-0.0091,-0.0091,-0.009,-0.009,0,0,-0.0537,-0.057,-0.0574,-0.0581,-0.0576,-0.0579,-0.0555,-0.0518,-0.049,-0.0435,-0.0376,-0.0287,-0.024,-0.0193,-0.0133,-0.0066,-0.0006,-0.0046,-0.0042,-0.0029,0.0103,0.0082,0.0091,0.002,0.0022,0.0023,0.0097,0,-0.0573,-0.0625,-0.0622,-0.0645,-0.0664,-0.0623,-0.06,-0.0557,-0.0504,-0.0439,-0.0338,-0.0269,-0.0242,-0.0192,-0.0124,-0.0033,0.0022,-0.003,0.0096,0.01,0.0072,0.0104,0.0087,0.015,0.0107,0.0109,0.011,0,-0.0623,-0.0647,-0.0688,-0.0684,-0.0686,-0.0685,-0.0633,-0.0607,-0.0508,-0.0457,-0.0369,-0.0297,-0.0176,-0.0155,-0.0005,-0.0046,0.0024,0.0085,0.009,0.0098,0.0099,0.0135,0.0171,0.0128,0.0126,0.0125,0.0124,0,-0.0653,-0.0684,-0.0716,-0.072,-0.0716,-0.0704,-0.0681,-0.0611,-0.0571,-0.0455,-0.0405,-0.0281,-0.0191,-0.0093,0.0028,0.002,0.0177,0.019,0.0227,0.0225,0.0252,0.0249,0.0291,0.0291,0.0291,0.0291,0.0291,0,-0.0694,-0.0714,-0.0734,-0.0752,-0.076,-0.0737,-0.0715,-0.0668,-0.0582,-0.0527,-0.0414,-0.0338,-0.0169,-0.0061,0.0029,0.0152,0.018,0.0234,0.0255,0.0232,0.0226,0.0245,0.0239,0.0293,0.0293,0.0292,0.0292,0,-0.0726,-0.0746,-0.078,-0.0786,-0.0783,-0.0785,-0.0743,-0.0716,-0.0638,-0.0554,-0.051,-0.0354,-0.0214,-0.0081,0.01,0.0161,0.0277,0.0308,0.0248,0.026,0.0278,0.0269,0.0371,0.0371,0.0371,0.0371,0.0371,0,-0.0748,-0.0777,-0.0808,-0.0821,-0.0825,-0.0819,-0.0807,-0.0743,-0.0705,-0.057,-0.0523,-0.0366,-0.0245,-0.0018,0.013,0.0277,0.0283,0.0331,0.0329,0.0283,0.0293,0.0283,0.0273,0.0339,0.0339,0.0339,0.0339,0,-0.0779,-0.0796,-0.0823,-0.0854,-0.0861,-0.0859,-0.0831,-0.0806,-0.0718,-0.0644,-0.0516,-0.0408,-0.0187,-0.0003,0.0173,0.025,0.0306,0.0331,0.0338,0.0308,0.0256,0.0263,0.0255,0.0337,0.0337,0.0337,0.0337,0.0338,-0.079,-0.0818,-0.0853,-0.0876,-0.0887,-0.0878,-0.0859,-0.0812,-0.0746,-0.0605,-0.0522,-0.0339,-0.0178,0.01,0.0209,0.0314,0.0318,0.0349,0.0349,0.035,0.032,0.027,0.0346,0.0346,0.0346,0.0347,0.0347,0,-0.0797,-0.0828,-0.086,-0.0888,-0.0897,-0.0896,-0.0857,-0.0813,-0.073,-0.0591,-0.0459,-0.0254,-0.0065,0.0095,0.0266,0.0352,0.0353,0.0356,0.0347,0.0348,0.0348,0.0318,0.0344,0.0345,0.0345,0.0345,0,0,-0.0801,-0.0838,-0.0857,-0.088,-0.0894,-0.0877,-0.085,-0.0772,-0.0663,-0.051,-0.0364,-0.0204,-0.0023,0.0097,0.0198,0.0283,0.0291,0.0283,0.0274,0.0251,0.025,0.0331,0.0282,0,0,0,0,0]}],[{"header":{"parameterUnit":"m.s-1","parameterCategory":2,"la1":30.2991,"la2":30.254,"lo1":-89.0895,"lo2":-89.0444,"dy":0.0017,"dx":0.0017,"nx":28,"ny":28,"refTime":"2024-02-11T03:00:00:Z","depth":"4","parameterNumber":2,"parameterNumberName":"U-component_of_CURRENTS"},"data":[0,0,0,0,0,0,0,0,0,0,0,0,0,0,0,0,0,0,0,0,0,0,0,0,0,0,0,0,0,0,0,0,0,0,0,0,0,0,0,0,0,0,0,0,0,0,0,0,0,0,0,0,0,0,0,0,0,0,-0.1017,-0.1017,0,-0.1026,-0.1026,-0.1026,-0.1046,-0.1046,-0.1046,-0.1047,-0.1053,-0.1053,-0.1053,0,0,0,0,0,0,0,0,0,0,0,0,0,-0.0999,-0.0999,-0.1017,-0.1017,-0.1017,-0.1026,-0.1026,-0.1026,-0.1046,-0.1046,-0.1046,-0.1047,-0.1053,-0.1053,-0.1053,0,0,0,0,0,0,0,0,0,0,0,0,0,-0.1008,-0.0999,-0.1017,-0.1027,-0.1028,-0.1026,-0.1026,-0.1026,-0.1045,-0.1046,-0.1046,-0.1047,-0.1054,-0.1053,-0.1053,-0.1043,0,0,-0.1053,-0.1053,0,0,0,0,0,0,0,0,-0.1007,-0.1009,-0.1026,-0.1026,-0.1028,-0.1034,-0.1022,-0.1031,-0.1045,-0.104,-0.1047,-0.1047,-0.1046,-0.1046,-0.1048,-0.1043,-0.1043,-0.1053,-0.1053,-0.1053,-0.1052,0,0,0,0,0,0,0,-0.1007,-0.1008,-0.1021,-0.1026,-0.1027,-0.1025,-0.1027,-0.1024,-0.1041,-0.104,-0.1041,-0.1041,-0.1047,-0.1048,-0.1049,-0.1043,-0.1053,-0.1053,-0.1052,-0.1052,-0.1085,-0.1085,0,0,0,0,0,0,-0.1005,-0.1008,-0.1021,-0.1022,-0.1017,-0.1025,-0.1027,-0.1032,-0.1041,-0.1042,-0.1041,-0.1042,-0.1048,-0.1049,-0.1049,-0.1065,-0.1053,-0.1052,-0.1052,-0.1084,-0.1085,-0.1086,0,0,0,0,0,0,-0.1004,-0.1006,-0.1021,-0.1014,-0.1016,-0.1025,-0.103,-0.1032,-0.1052,-0.1041,-0.1043,-0.106,-0.1049,-0.1049,-0.1058,-0.1064,-0.1052,-0.1052,-0.1082,-0.1084,-0.1085,-0.1079,0,0,0,0,0,0,-0.1004,-0.1006,-0.1018,-0.1014,-0.1016,-0.1024,-0.103,-0.1032,-0.1049,-0.1051,-0.1058,-0.1058,-0.1049,-0.1059,-0.1058,-0.1064,-0.1052,-0.1081,-0.1083,-0.1085,-0.1078,-0.108,-0.1082,0,0,0,0,0,-0.1003,-0.1008,-0.1018,-0.102,-0.1029,-0.1023,-0.1025,-0.1033,-0.105,-0.1054,-0.1063,-0.1059,-0.107,-0.1059,-0.1058,-0.1064,-0.108,-0.1083,-0.1085,-0.1077,-0.108,-0.1082,0,0,0,0,0,0,-0.1006,-0.101,-0.1022,-0.1029,-0.1031,-0.1027,-0.1032,-0.1044,-0.1056,-0.1063,-0.1063,-0.1063,-0.1075,-0.1076,-0.1064,-0.1083,-0.1078,-0.108,-0.1072,-0.1075,-0.1077,-0.1082,-0.1052,0,0,0,0,0,-0.1012,-0.102,-0.1021,-0.103,-0.1031,-0.1039,-0.1043,-0.1048,-0.1053,-0.106,-0.1068,-0.1078,-0.108,-0.1083,-0.1085,-0.1091,-0.1083,-0.1099,-0.1101,-0.1103,-0.1109,-0.1098,-0.1098,-0.1093,-0.1093,-0.1093,0,0,-0.1016,-0.102,-0.1026,-0.1031,-0.1036,-0.1036,-0.1043,-0.1048,-0.1054,-0.1058,-0.1076,-0.1083,-0.1085,-0.109,-0.1096,-0.1092,-0.11,-0.1105,-0.1106,-0.1112,-0.11,-0.11,-0.11,-0.1094,-0.1094,-0.1094,0,0,-0.1013,-0.1031,-0.1032,-0.1036,-0.1041,-0.1043,-0.105,-0.1056,-0.1066,-0.1079,-0.1085,-0.1096,-0.1109,-0.1104,-0.1104,-0.1121,-0.111,-0.1132,-0.1142,-0.113,-0.113,-0.113,-0.1111,-0.1109,-0.1132,-0.1132,-0.1132,0,-0.1021,-0.1021,-0.1031,-0.1031,-0.1033,-0.1049,-0.1047,-0.1056,-0.1069,-0.1073,-0.1088,-0.1111,-0.1112,-0.1111,-0.1123,-0.1122,-0.1117,-0.1127,-0.113,-0.113,-0.113,-0.111,-0.1108,-0.1132,-0.1132,-0.1132,-0.1132,0,-0.101,-0.1019,-0.1018,-0.1027,-0.1031,-0.1031,-0.104,-0.1055,-0.1076,-0.1083,-0.1101,-0.1108,-0.112,-0.1127,-0.1132,-0.1136,-0.1133,-0.113,-0.1117,-0.1129,-0.1109,-0.1107,-0.1132,-0.1132,-0.1132,-0.1132,0,0,-0.1001,-0.1009,-0.1012,-0.1015,-0.1029,-0.1027,-0.104,-0.1045,-0.1051,-0.1081,-0.1082,-0.1109,-0.1124,-0.1128,-0.1134,-0.1136,-0.1127,-0.1142,-0.1141,-0.1111,-0.11,-0.1034,-0.1025,-0.1126,-0.1126,-0.1126,-0.1082,0,-0.099,-0.0986,-0.0995,-0.0998,-0.0994,-0.1015,-0.1022,-0.1034,-0.1047,-0.1053,-0.1074,-0.1085,-0.1119,-0.1128,-0.1134,-0.1134,-0.1124,-0.1139,-0.1105,-0.1104,-0.1033,-0.1021,-0.1126,-0.108,-0.108,-0.1079,-0.1079,0,-0.0967,-0.097,-0.0967,-0.0977,-0.0978,-0.0989,-0.0999,-0.1007,-0.1019,-0.1032,-0.1053,-0.1067,-0.1089,-0.1106,-0.1117,-0.1129,-0.1118,-0.1115,-0.1113,-0.1054,-0.1033,-0.1071,-0.1075,-0.1075,-0.1076,-0.1076,-0.1076,0,-0.0934,-0.0946,-0.0944,-0.095,-0.0965,-0.0976,-0.0992,-0.1005,-0.1008,-0.1024,-0.1031,-0.1051,-0.1069,-0.1073,-0.1091,-0.1104,-0.1082,-0.1088,-0.1011,-0.1006,-0.1081,-0.1082,-0.1071,-0.1071,-0.1071,-0.1071,-0.1071,0,-0.0898,-0.09,-0.0936,-0.0933,-0.0935,-0.0963,-0.0961,-0.0979,-0.0994,-0.0993,-0.1027,-0.103,-0.1067,-0.1063,-0.1069,-0.1035,-0.1063,-0.1007,-0.0988,-0.108,-0.1081,-0.1079,-0.108,-0.1069,-0.107,-0.107,-0.107,0,-0.0846,-0.0871,-0.0871,-0.0902,-0.0914,-0.0919,-0.0947,-0.0944,-0.098,-0.0978,-0.099,-0.1019,-0.1024,-0.1032,-0.1025,-0.1001,-0.0973,-0.0945,-0.1035,-0.1023,-0.0908,-0.091,-0.0852,-0.0849,-0.0847,-0.0845,-0.0843,0,-0.0814,-0.0809,-0.0842,-0.0845,-0.0862,-0.088,-0.0885,-0.0927,-0.0929,-0.0969,-0.0962,-0.0977,-0.0988,-0.0921,-0.0942,-0.091,-0.0905,-0.0874,-0.0904,-0.0897,-0.0885,-0.0891,-0.0896,-0.084,-0.0839,-0.0839,-0.0838,0,-0.0749,-0.0771,-0.0772,-0.0782,-0.0795,-0.08,-0.0824,-0.0824,-0.0873,-0.0912,-0.091,-0.0899,-0.0885,-0.0878,-0.0847,-0.0833,-0.089,-0.085,-0.0855,-0.0883,-0.0882,-0.0873,-0.0881,-0.083,-0.0831,-0.0832,-0.0832,0,-0.0704,-0.0691,-0.0702,-0.0701,-0.0721,-0.0722,-0.0742,-0.0757,-0.0769,-0.0833,-0.0829,-0.0851,-0.0882,-0.0836,-0.0817,-0.0787,-0.0783,-0.076,-0.077,-0.078,-0.0776,-0.0765,-0.0652,0,0,0,0,0,-0.065,-0.0625,-0.062,-0.0614,-0.0638,-0.065,-0.0697,-0.0726,-0.0783,-0.0761,-0.0796,-0.0785,-0.0761,-0.077,-0.0723,-0.0774,-0.0779,-0.0715,-0.0757,-0.0785,-0.0794,-0.0797,0,0,0,0,0,0,-0.0608,-0.0599,-0.0589,-0.0549,-0.0537,-0.0552,-0.0586,-0.063,-0.0627,-0.0693,-0.0684,-0.0725,-0.0711,-0.0768,-0.0701,-0.0701,-0.071,-0.0729,-0.0727,-0.078,-0.0788,-0.0796,-0.0802,0,0,0,0,0]},{"header":{"parameterUnit":"m.s-1","parameterCategory":2,"la1":30.2991,"la2":30.254,"lo1":-89.0895,"lo2":-89.0444,"dy":0.0017,"dx":0.0017,"nx":28,"ny":28,"refTime":"2024-02-11T03:00:00:Z","depth":"4","parameterNumber":3,"parameterNumberName":"V-component_of_CURRENTS"},"data":[0,0,0,0,0,0,0,0,0,0,0,0,0,0,0,0,0,0,0,0,0,0,0,0,0,0,0,0,0,0,0,0,0,0,0,0,0,0,0,0,0,0,0,0,0,0,0,0,0,0,0,0,0,0,0,0,0,0,-0.0303,-0.0303,0,-0.0313,-0.0313,-0.0314,-0.0288,-0.0287,-0.0287,-0.0286,-0.0266,-0.0267,-0.0267,0,0,0,0,0,0,0,0,0,0,0,0,0,-0.0261,-0.0262,-0.0303,-0.0303,-0.0303,-0.0313,-0.0313,-0.0314,-0.0288,-0.0287,-0.0286,-0.0286,-0.0266,-0.0267,-0.0267,0,0,0,0,0,0,0,0,0,0,0,0,0,-0.0275,-0.0262,-0.0303,-0.0293,-0.0292,-0.0313,-0.0313,-0.0314,-0.0288,-0.0287,-0.0286,-0.0285,-0.0266,-0.0267,-0.0267,-0.0289,0,0,-0.0267,-0.0268,0,0,0,0,0,0,0,0,-0.0275,-0.0277,-0.0294,-0.0293,-0.0293,-0.0299,-0.0292,-0.0304,-0.0289,-0.0289,-0.0286,-0.0285,-0.0276,-0.0276,-0.0279,-0.0289,-0.0288,-0.0267,-0.0268,-0.0268,-0.0268,0,0,0,0,0,0,0,-0.0274,-0.0276,-0.0306,-0.0294,-0.0294,-0.0288,-0.0288,-0.0294,-0.0287,-0.0289,-0.0287,-0.029,-0.0275,-0.0279,-0.0278,-0.0287,-0.0267,-0.0268,-0.0268,-0.0268,-0.0289,-0.0289,0,0,0,0,0,0,-0.0276,-0.0275,-0.0306,-0.0306,-0.0282,-0.029,-0.029,-0.0297,-0.0287,-0.0285,-0.0291,-0.0289,-0.0279,-0.0278,-0.0277,-0.0299,-0.0268,-0.0268,-0.0268,-0.0288,-0.0289,-0.0289,0,0,0,0,0,0,-0.0275,-0.0279,-0.0305,-0.0292,-0.0295,-0.0291,-0.03,-0.0298,-0.0304,-0.029,-0.0287,-0.0299,-0.0278,-0.0277,-0.0284,-0.0298,-0.0268,-0.0268,-0.0288,-0.0288,-0.0289,-0.0346,0,0,0,0,0,0,-0.0274,-0.0278,-0.0287,-0.0292,-0.0296,-0.0324,-0.0301,-0.0299,-0.0308,-0.0306,-0.0296,-0.0293,-0.0277,-0.0284,-0.0284,-0.0298,-0.0268,-0.0287,-0.0288,-0.0289,-0.0344,-0.0349,-0.0353,0,0,0,0,0,-0.0272,-0.0293,-0.0287,-0.0291,-0.0306,-0.0325,-0.0327,-0.0319,-0.031,-0.032,-0.0309,-0.0293,-0.0288,-0.0285,-0.0285,-0.0299,-0.0287,-0.0288,-0.0289,-0.0342,-0.0348,-0.0353,0,0,0,0,0,0,-0.028,-0.0292,-0.0286,-0.0309,-0.0317,-0.0321,-0.0334,-0.0328,-0.033,-0.0327,-0.0307,-0.0304,-0.0314,-0.03,-0.0296,-0.0305,-0.0282,-0.0283,-0.0322,-0.0328,-0.0332,-0.033,-0.0269,0,0,0,0,0,-0.0286,-0.0304,-0.031,-0.0329,-0.0336,-0.0336,-0.0343,-0.0341,-0.0342,-0.0342,-0.0334,-0.0323,-0.0319,-0.0318,-0.0313,-0.0327,-0.0296,-0.0332,-0.0336,-0.034,-0.0337,-0.0318,-0.032,-0.0292,-0.0292,-0.0292,0,0,-0.0295,-0.0304,-0.0313,-0.0332,-0.0338,-0.0358,-0.0338,-0.0357,-0.0369,-0.0341,-0.0356,-0.0345,-0.0327,-0.0337,-0.0339,-0.0326,-0.0329,-0.0342,-0.0345,-0.034,-0.0319,-0.0322,-0.0324,-0.0293,-0.0293,-0.0293,0,0,-0.0326,-0.033,-0.0355,-0.0366,-0.0382,-0.0382,-0.0391,-0.04,-0.0397,-0.0413,-0.0391,-0.0387,-0.0388,-0.0373,-0.0366,-0.0395,-0.0356,-0.0393,-0.0415,-0.0396,-0.0398,-0.04,-0.035,-0.0347,-0.0393,-0.0393,-0.0393,0,-0.0334,-0.0365,-0.0366,-0.0393,-0.0404,-0.0396,-0.0423,-0.0427,-0.0434,-0.0433,-0.0424,-0.0416,-0.0404,-0.0405,-0.0409,-0.0406,-0.0378,-0.0399,-0.0403,-0.0404,-0.0404,-0.0353,-0.0349,-0.0396,-0.0395,-0.0395,-0.0395,0,-0.0384,-0.0407,-0.0425,-0.0452,-0.0464,-0.0489,-0.0491,-0.05,-0.0495,-0.049,-0.0492,-0.0474,-0.0463,-0.0461,-0.0445,-0.0444,-0.0415,-0.0414,-0.0391,-0.0411,-0.0355,-0.0349,-0.04,-0.0399,-0.0398,-0.0397,0,0,-0.0403,-0.045,-0.0456,-0.0472,-0.0496,-0.0511,-0.0532,-0.0543,-0.0548,-0.0548,-0.055,-0.0543,-0.0522,-0.0512,-0.049,-0.0473,-0.0449,-0.0447,-0.0445,-0.04,-0.0384,-0.0343,-0.0333,-0.0453,-0.0453,-0.0453,-0.0338,0,-0.0439,-0.0497,-0.0509,-0.0554,-0.058,-0.0577,-0.0593,-0.0599,-0.0593,-0.0592,-0.0569,-0.0564,-0.0544,-0.0536,-0.0519,-0.0468,-0.0439,-0.0478,-0.0368,-0.0364,-0.0329,-0.0327,-0.0452,-0.0333,-0.0332,-0.0331,-0.033,0,-0.0482,-0.0513,-0.0568,-0.0596,-0.0606,-0.063,-0.0641,-0.0653,-0.0646,-0.0638,-0.0627,-0.0603,-0.0576,-0.0559,-0.048,-0.0506,-0.0448,-0.0406,-0.04,-0.0339,-0.0314,-0.0311,-0.0319,-0.032,-0.0321,-0.0322,-0.0322,0,-0.0494,-0.0548,-0.0591,-0.0605,-0.064,-0.0657,-0.0669,-0.067,-0.0669,-0.0664,-0.065,-0.0625,-0.059,-0.0541,-0.0446,-0.0465,-0.0344,-0.036,-0.0263,-0.0258,-0.0304,-0.0303,-0.0302,-0.0302,-0.0302,-0.0302,-0.0303,0,-0.0521,-0.0553,-0.0602,-0.0626,-0.0661,-0.0677,-0.0701,-0.0704,-0.0699,-0.0684,-0.067,-0.0633,-0.0584,-0.0507,-0.0444,-0.0321,-0.0337,-0.0257,-0.0231,-0.0327,-0.0331,-0.0298,-0.0299,-0.0298,-0.0299,-0.03,-0.0301,0,-0.0526,-0.0563,-0.061,-0.0657,-0.0673,-0.0696,-0.0719,-0.0723,-0.0717,-0.0695,-0.0689,-0.0627,-0.0522,-0.0448,-0.0339,-0.0294,-0.02,-0.015,-0.0226,-0.0208,-0.0126,-0.0132,-0.0045,-0.0042,-0.0041,-0.0039,-0.0038,0,-0.0533,-0.0564,-0.0628,-0.0653,-0.0678,-0.0712,-0.0727,-0.0735,-0.0726,-0.0672,-0.0647,-0.0551,-0.0497,-0.0297,-0.0241,-0.0112,-0.0099,-0.0054,-0.0127,-0.0119,-0.0102,-0.0111,-0.0118,-0.0035,-0.0034,-0.0034,-0.0033,0,-0.0537,-0.0568,-0.0603,-0.0655,-0.0686,-0.0712,-0.0727,-0.0716,-0.0699,-0.0696,-0.0581,-0.0492,-0.036,-0.0255,-0.0144,-0.0062,-0.0099,-0.0035,-0.0039,-0.0107,-0.0105,-0.0093,-0.0103,-0.0026,-0.0027,-0.0028,-0.0028,0,-0.0532,-0.0555,-0.0605,-0.0642,-0.0682,-0.069,-0.0704,-0.067,-0.0655,-0.0592,-0.0545,-0.0425,-0.0364,-0.0223,-0.0125,-0.0039,-0.0038,-0.004,-0.0044,-0.0051,-0.0103,-0.0105,0.0006,0,0,0,0,0,-0.0519,-0.0543,-0.0582,-0.0623,-0.066,-0.0679,-0.0689,-0.0693,-0.0671,-0.0581,-0.0561,-0.0435,-0.0274,-0.0207,-0.011,-0.0113,-0.0042,-0.0001,-0.0051,0.0011,0.0003,-0.0056,0,0,0,0,0,0,-0.0512,-0.0551,-0.0572,-0.0595,-0.0616,-0.0646,-0.0651,-0.0639,-0.0584,-0.0551,-0.0457,-0.0421,-0.0262,-0.032,-0.0107,-0.0084,-0.0106,0.0068,0.007,0.0015,0.0008,0.0002,-0.0062,0,0,0,0,0]}]]